Content
SEND FEEDBACK

Daily
Averages
Monthly
Summary
United States of America

WALNUT GROVE, ALABAMA


Home > North America > United States > Alabama
Elevation: 85 feet     Latitude: 34 04N     Longitude: 086 19W

WEATHER
 
SELECT A DAY
Number of Records: 213,175;   Date Range: 3/15/06 - 11/26/14
 
SHARE

PRINT THIS DATA

[ ← Previous Day ]
WEATHER ALMANAC - MARCH 14, 2014
[ Next Day → ]
[ °C ]   °F
Weather ElementAverageHighLow
Barometer30.16 in30.25 in (8:55 am)30.07 in (4:35 pm)
Wind Speed8.1 mph16.1 mph (4:15 pm)
Wind Gust23 mph (4:15 pm)
Weather ElementAverage
Visibility10 mi
Wind DirectionS (183 °)

Weather ElementTotal
Precipitation---
Heating Degree Days65 (Base 65)
Averaged from 71 records on March 14, 2014
WEATHER CONDITIONS BREAKOUT
WIND DIRECTION BREAKOUT
WEATHER BY HOUR - MARCH 14, 2014
[ °C ]   °F
Local TimeTemperatureDewpointHumidityBarometerVisibilityWind DirectionWind SpeedGust SpeedPrecipitationEventsConditions
12:35 AM0.0 °F0.0 °F30.21 in10.0 miSSE (150°)5.8 mphClear
12:55 AM0.0 °F0.0 °F30.21 in10.0 miSE (140°)5.8 mphClear
1:15 AM0.0 °F0.0 °F30.20 in10.0 miSE (140°)5.8 mphClear
1:35 AM0.0 °F0.0 °F30.21 in10.0 miSSE (150°)5.8 mphClear
1:55 AM0.0 °F0.0 °F30.21 in10.0 miSE (140°)5.8 mphClear
2:15 AM0.0 °F0.0 °F30.20 in10.0 miSE (140°)8.1 mphScattered Clouds
2:35 AM0.0 °F0.0 °F30.20 in10.0 miSE (140°)6.9 mphScattered Clouds
2:55 AM0.0 °F0.0 °F30.20 in10.0 miSSE (150°)6.9 mphScattered Clouds
3:15 AM0.0 °F0.0 °F30.20 in10.0 miSE (140°)5.8 mphClear
3:35 AM0.0 °F0.0 °F30.19 in10.0 miSE (140°)5.8 mphClear
3:55 AM0.0 °F0.0 °F30.19 in10.0 miSE (140°)5.8 mphScattered Clouds
4:15 AM0.0 °F0.0 °F30.19 in10.0 miSE (140°)5.8 mphClear
4:35 AM0.0 °F0.0 °F30.19 in10.0 miSE (140°)5.8 mphClear
4:55 AM0.0 °F0.0 °F30.19 in10.0 miSE (140°)6.9 mphScattered Clouds
5:15 AM0.0 °F0.0 °F30.19 in10.0 miSE (140°)6.9 mphClear
5:35 AM0.0 °F0.0 °F30.20 in10.0 miSE (140°)5.8 mphScattered Clouds
5:55 AM0.0 °F0.0 °F30.20 in10.0 miSE (140°)5.8 mphScattered Clouds
6:15 AM0.0 °F0.0 °F30.21 in10.0 miSSE (150°)4.6 mphClear
6:35 AM0.0 °F0.0 °F30.20 in10.0 miSSE (150°)5.8 mphClear
6:55 AM0.0 °F0.0 °F30.20 in10.0 miSSE (150°)5.8 mphClear
7:15 AM0.0 °F0.0 °F30.21 in10.0 miSSE (160°)4.6 mphClear
7:35 AM0.0 °F0.0 °F30.21 in10.0 miSSE (160°)4.6 mphClear
7:55 AM0.0 °F0.0 °F30.22 in10.0 miSSE (150°)4.6 mphClear
8:15 AM0.0 °F0.0 °F30.23 in10.0 miSSE (160°)4.6 mphClear
8:35 AM0.0 °F0.0 °F30.24 in10.0 miSouth (170°)4.6 mphClear
8:55 AM0.0 °F0.0 °F30.25 in10.0 miSouth (170°)6.9 mphClear
9:15 AM0.0 °F0.0 °F30.25 in10.0 miSouth (190°)5.8 mphClear
9:35 AM0.0 °F0.0 °F30.25 in10.0 miSouth (190°)11.5 mphClear
9:55 AM0.0 °F0.0 °F30.25 in10.0 miSouth (170°)10.4 mph16.1 mphClear
10:15 AM0.0 °F0.0 °F30.24 in10.0 miSouth (170°)11.5 mphClear
10:35 AM0.0 °F0.0 °F30.24 in10.0 miSouth (170°)10.4 mphClear
10:55 AM0.0 °F0.0 °F30.24 in10.0 miSouth (190°)9.2 mphClear
11:15 AM0.0 °F0.0 °F30.23 in10.0 miSouth (180°)9.2 mphClear
11:35 AM0.0 °F0.0 °F30.22 in10.0 miSouth (170°)12.7 mph17.3 mphClear
11:55 AM0.0 °F0.0 °F30.21 in10.0 miSouth (180°)10.4 mphClear
12:15 PM0.0 °F0.0 °F30.21 in10.0 miSSW (200°)12.7 mph19.6 mphClear
12:35 PM0.0 °F0.0 °F30.20 in10.0 miSouth (180°)13.8 mph19.6 mphClear
12:55 PM0.0 °F0.0 °F30.18 in10.0 miSSW (200°)13.8 mph21.9 mphClear
1:15 PM0.0 °F0.0 °F30.17 in10.0 miSouth (170°)6.9 mph21.9 mphClear
1:35 PM0.0 °F0.0 °F30.15 in10.0 miSSW (200°)11.5 mph16.1 mphClear
1:55 PM0.0 °F0.0 °F30.14 in10.0 miSSW (200°)8.1 mph16.1 mphClear
2:15 PM0.0 °F0.0 °F30.13 in10.0 miSouth (180°)13.8 mph17.3 mphClear
2:35 PM0.0 °F0.0 °F30.12 in10.0 miSouth (190°)15.0 mph18.4 mphClear
2:55 PM0.0 °F0.0 °F30.11 in10.0 miSouth (190°)11.5 mph19.6 mphClear
3:15 PM0.0 °F0.0 °F30.11 in10.0 miWSW (240°)12.7 mph21.9 mphClear
3:35 PM0.0 °F0.0 °F30.09 in10.0 miSW (220°)13.8 mph20.7 mphClear
3:55 PM0.0 °F0.0 °F30.09 in10.0 miSSW (200°)13.8 mph21.9 mphClear
4:15 PM0.0 °F0.0 °F30.08 in10.0 miSSW (210°)16.1 mph23.0 mphClear
4:35 PM0.0 °F0.0 °F30.07 in10.0 miSSW (210°)15.0 mph18.4 mphClear
4:55 PM0.0 °F0.0 °F30.07 in10.0 miSSW (200°)9.2 mphClear
5:15 PM0.0 °F0.0 °F30.07 in10.0 miSW (220°)12.7 mph19.6 mphScattered Clouds
5:35 PM0.0 °F0.0 °F30.08 in10.0 miSW (220°)11.5 mph19.6 mphMostly Cloudy
5:55 PM0.0 °F0.0 °F30.09 in10.0 miSW (220°)8.1 mphMostly Cloudy
6:15 PM0.0 °F0.0 °F30.10 in10.0 miSW (220°)6.9 mphScattered Clouds
6:35 PM0.0 °F0.0 °F30.10 in10.0 miSW (220°)6.9 mphMostly Cloudy
6:55 PM0.0 °F0.0 °F30.11 in10.0 miWSW (240°)8.1 mph16.1 mphMostly Cloudy
7:15 PM0.0 °F0.0 °F30.12 in10.0 miWest (260°)6.9 mphOvercast
7:35 PM0.0 °F0.0 °F30.12 in10.0 miSW (230°)5.8 mphOvercast
7:55 PM0.0 °F0.0 °F30.12 in10.0 miSSW (210°)8.1 mphMostly Cloudy
8:15 PM0.0 °F0.0 °F30.11 in10.0 miSW (220°)5.8 mphMostly Cloudy
8:35 PM0.0 °F0.0 °F30.13 in10.0 miWest (260°)4.6 mphOvercast
8:55 PM0.0 °F0.0 °F30.12 in10.0 miSW (220°)3.5 mphMostly Cloudy
9:15 PM0.0 °F0.0 °F30.12 in10.0 miSSW (210°)5.8 mphScattered Clouds
9:35 PM0.0 °F0.0 °F30.13 in10.0 miSW (220°)5.8 mphScattered Clouds
9:55 PM0.0 °F0.0 °F30.12 in10.0 miSSW (200°)4.6 mphMostly Cloudy
10:15 PM0.0 °F0.0 °F30.12 in10.0 miSSW (210°)9.2 mph17.3 mphOvercast
10:35 PM0.0 °F0.0 °F30.11 in10.0 miSW (220°)10.4 mph17.3 mphOvercast
10:55 PM0.0 °F0.0 °F30.10 in10.0 miSSW (200°)5.8 mphOvercast
11:15 PM0.0 °F0.0 °F30.10 in10.0 miSouth (170°)4.6 mphOvercast
11:35 PM0.0 °F0.0 °F30.10 in10.0 miSouth (180°)4.6 mphOvercast
11:55 PM0.0 °F0.0 °F30.09 in10.0 miSSW (210°)3.5 mphMostly Cloudy
Hourly data recorded from K8A0, located miles away from Walnut Grove, Alabama







STORIES FROM OUR PARTNERS